STARLINK-1374 (45545 NORAD) Tracking and Keplerian Element Data

This shows tracking and keplerian element data for the satellite.

Feedback or suggestion? Click here.




ElementValue
Catalog45545
NameSTARLINK-1374
Epoch Orbit1245
Epoch Day190.25001157
Epoch Year2020
RAAN41.1796
Inclination53.0013
Eccentricity0.0001902
Argument of Perigee98.7256
Mean Anonmoly216.9064
Mean Motion15.05570225
Decay Rate8.92E-06
L11 45545U 20025Q 20190.25001157 .00000892 00000-0 80418-4 0 9999
L22 45545 53.0013 41.1796 0001902 98.7256 216.9064 15.05570225 12456

Live tracking and technical data element details for STARLINK-1374 (NORAD 45545). STARLINK-1374 can be tracked NOW for your location showing map with azimuth and elevation plus other details from your city location.

Track the satellite on the map from your city or location and see movement details for azimuth, elevation, latitude, longitude, range, height, and movement on the map or in text.







IsCatalogInMostPopularTable: catalog: 45545, numindb: 16
Update: records affected: 1



GetName: 45545 STARLINK-1374

Hit Count: updated at: Fri, 10 Jul 2020 02:50:30 GMT